Location: South Lake Conway Villa
(28.4637°N, 81.3446°W)
Time: 21:40:32
(UTC+00:00)

BREEZE-M DEB (TANK) - Visible Passes

Search period start: 18 November 2025 00:00
Search period end: 28 November 2025 00:00
Orbit: 377 x 13811 km, 46.0° (Epoch: 18 November)

Date Brightness Start Highest point End Pass type
(mag) Time Alt. Az. Time Alt. Az. Time Alt. Az.
18 Nov 7.6 09:27:07 10° S 09:51:47 44° ESE 11:28:54 10° NE visible
19 Nov 7.5 11:25:27 10° SW 11:56:55 84° SE 14:07:40 10° ENE visible
19 Nov 7.9 22:13:25 10° NW 23:19:22 29° W 23:38:52 10° SSW visible
20 Nov 7.6 08:59:58 10° SSE 09:23:15 39° E 10:51:47 10° NE visible
21 Nov 7.4 10:57:28 10° SSW 11:26:04 80° SE 13:34:09 10° ENE visible
21 Nov 7.9 21:34:37 10° NW 22:51:17 34° W 23:12:06 10° SSW visible
22 Nov 7.6 08:32:59 10° SSE 08:54:55 34° E 10:13:49 10° NE visible
23 Nov 7.4 10:29:32 10° SSW 10:55:42 75° ESE 12:59:55 10° ENE visible
24 Nov 7.7 08:06:12 10° SSE 08:26:46 29° E 09:35:01 10° NE visible
25 Nov 7.3 10:01:40 10° SSW 10:25:43 70° ESE 12:24:56 10° NE visible
26 Nov 7.7 07:39:42 10° SE 07:58:44 25° E 08:55:23 10° NE visible
27 Nov 7.3 09:33:52 10° SSW 09:56:06 65° ESE 11:49:10 10° NE visible
